This demonstration page uses our WeatherBlox Daily Observations layout. Learn more.

Left ArrowRight Arrow

Hourly Observations for April 6, 2019

Temp ( °F °C ) Dew Point ( °F °C ) Humidity (%) Winds ( mph kmh ) Pressure ( in mb ) Visibility ( mi km ) Precip ( " mm )
12:52 am 00:52 Cloudy 57 13.9 49 9.4 74 74 SSE 16 26 29.92 1013 8 13 0.00 0.00
1:52 am 01:52 Cloudy 57 13.9 49 9.4 74 74 S 17 28 29.89 1012 10 16 0.00 0.00
2:52 am 02:52 Cloudy 55 12.8 49 9.4 80 80 SSE 16 26 29.88 1012 10 16 0.00 0.00
3:52 am 03:52 Cloudy 54 12.2 48 8.9 80 80 SSE 16 26 29.86 1011 10 16 0.00 0.00
4:52 am 04:52 Cloudy 52 11.1 47 8.3 83 83 SSE 12 19 29.88 1012 9 14 0.00 0.00
5:52 am 05:52 Cloudy 51 10.6 47 8.3 86 86 SSE 14 22 29.88 1012 9 14 0.00 0.00
6:52 am 06:52 Cloudy 53 11.7 48 8.9 83 83 SSE 14 22 29.88 1012 10 16 0.00 0.00
7:52 am 07:52 Cloudy 55 12.8 48 8.9 77 77 SSE 14 22 29.90 1013 10 16 0.00 0.00
8:52 am 08:52 Mostly Cloudy 57 13.9 49 9.4 74 74 SSE 14 22 29.91 1013 10 16 0.00 0.00
9:52 am 09:52 Mostly Cloudy 61 16.1 49 9.4 65 65 SSE 15 24 29.89 1012 10 16 0.00 0.00
10:52 am 10:52 Mostly Cloudy 63 17.2 50 10 63 63 SSE 17 28 29.88 1012 10 16 0.00 0.00
11:52 am 11:52 Mostly Cloudy 69 20.6 50 10 51 51 SSE 18 30 29.87 1012 10 16 0.00 0.00
12:52 pm 12:52 Mostly Cloudy 71 21.7 51 10.6 49 49 S 17 28 29.85 1011 10 16 0.00 0.00
1:52 pm 13:52 Mostly Cloudy 74 23.3 53 11.7 48 48 SSE 18 30 29.84 1010 10 16 0.00 0.00
2:52 pm 14:52 Mostly Cloudy 77 25 54 12.2 45 45 SSE 18 30 29.81 1009 10 16 0.00 0.00
3:52 pm 15:52 Mostly Cloudy 78 25.6 55 12.8 45 45 S 17 28 29.77 1008 10 16 0.00 0.00
4:52 pm 16:52 Mostly Cloudy 78 25.6 54 12.2 43 43 S 17 28 29.77 1008 10 16 0.00 0.00
5:52 pm 17:52 Mostly Cloudy 78 25.6 47 8.3 33 33 S 17 28 29.74 1007 10 16 0.00 0.00
6:52 pm 18:52 Cloudy 75 23.9 48 8.9 39 39 SSE 15 24 29.75 1008 10 16 0.00 0.00
7:52 pm 19:52 Cloudy 72 22.2 48 8.9 43 43 SSE 16 26 29.76 1008 10 16 0.00 0.00
8:52 pm 20:52 Cloudy 70 21.1 49 9.4 47 47 SSE 14 22 29.78 1008 10 16 0.00 0.00
9:52 pm 21:52 Cloudy 68 20 49 9.4 51 51 SSE 12 19 29.79 1009 10 16 0.00 0.00
10:52 pm 22:52 Cloudy 68 20 50 10 53 53 SW 17 28 29.80 1009 10 16 0.00 0.00
11:03 pm 23:03 Cloudy 65 18.3 51 10.6 61 61 SW 16 26 29.80 1009 10 16 0.00 0.00
11:52 pm 23:52 Cloudy 64 17.8 51 10.6 63 63 SW 8 13 29.81 1009 10 16 0.00 0.00

Powered by AerisWeather